Cosmos 1400 Rocket - Orbit

View from above orbital plane
View from above orbital plane
View from above satellite
View from above satellite

Ground track
Ground track

The orbit data is extracted from the following two-line orbital elements,

1 13403U 82079B   13144.51872425  .00002219  00000-0  16587-3 0  3004
2 13403 081.1701 164.8708 0038854 116.3841 244.1377 15.01790698673456
Epoch (UTC): 24 May 2013 12:26:57
Eccentricity: 0.0038854
inclination: 81.1701°
perigee height: 534 km
apogee height: 588 km
right ascension of ascending node: 164.8708°
argument of perigee: 116.3841°
revolutions per day: 15.01790698
mean anomaly at epoch: 244.1377°
orbit number at epoch: 67345

The dashed part of the orbit path shows where the satellite is in the earth's shadow,  

Developed and maintained by Chris Peat, Heavens-Above GmbH. Please read the updated FAQ before sending e-mail. Imprint. DLR